Location: Lecco
(45.8566°N, 9.3977°E)
Time: 02:00:40
(UTC+02:00)

S-56A Canister/Altair - Pass Details

Date: 22 July 2019
Orbit: 633 x 2499 km, 38.9° (Epoch: 18 August)

Event Time Altitude Azimuth Distance (km) Brightness Sun altitude
Rises 09:15:31 0° 250° (WSW) 5,213 11.3 32.8°
Reaches altitude 10° 09:18:37 10° 247° (WSW) 4,427 11.0 33.4°
Maximum altitude 09:31:16 64° 170° (S) 2,592 10.9 35.6°
Drops below altitude 10° 09:46:08 10° 95° (E) 5,124 13.0 38.1°
Sets 09:50:02 0° 93° (E) 6,052 13.0 38.8°
